TimeCDT,TemperatureF,Dew PointF,Humidity,Sea Level PressureIn,VisibilityMPH,Wind Direction,Wind SpeedMPH,Gust SpeedMPH,PrecipitationIn,Events,Conditions,WindDirDegrees,DateUTC
12:15 AM,38.8,33.3,80,30.30,10.0,Calm,Calm,-,N/A,,Mostly Cloudy,0,2012-10-07 05:15:00
12:35 AM,38.8,34.7,85,30.30,10.0,Calm,Calm,-,N/A,,Mostly Cloudy,0,2012-10-07 05:35:00
12:55 AM,38.8,34.2,83,30.31,10.0,Calm,Calm,-,N/A,,Scattered Clouds,0,2012-10-07 05:55:00
1:15 AM,38.8,34.2,83,30.31,10.0,Calm,Calm,-,N/A,,Scattered Clouds,0,2012-10-07 06:15:00
1:35 AM,38.8,33.8,82,30.31,10.0,Calm,Calm,-,N/A,,Scattered Clouds,0,2012-10-07 06:35:00
2:15 AM,38.8,34.3,84,30.32,10.0,NNW,3.5,-,N/A,,Scattered Clouds,330,2012-10-07 07:15:00
2:35 AM,38.8,34.5,84,30.32,10.0,Calm,Calm,-,N/A,,Scattered Clouds,0,2012-10-07 07:35:00
2:55 AM,37.9,35.2,90,30.32,10.0,Calm,Calm,-,N/A,,Clear,0,2012-10-07 07:55:00
3:15 AM,36.5,34.5,93,30.31,10.0,Calm,Calm,-,N/A,,Scattered Clouds,0,2012-10-07 08:15:00
3:35 AM,36.5,35.2,95,30.30,10.0,Calm,Calm,-,N/A,,Scattered Clouds,0,2012-10-07 08:35:00
3:55 AM,36.5,36.3,99,30.30,10.0,Calm,Calm,-,N/A,,Scattered Clouds,0,2012-10-07 08:55:00
4:15 AM,36.5,36.5,100,30.30,10.0,Calm,Calm,-,N/A,,Mostly Cloudy,0,2012-10-07 09:15:00
4:35 AM,36.5,36.5,100,30.29,10.0,Calm,Calm,-,N/A,,Scattered Clouds,0,2012-10-07 09:35:00
4:55 AM,35.4,35.4,100,30.29,10.0,Calm,Calm,-,N/A,,Clear,0,2012-10-07 09:55:00
5:15 AM,33.8,34.0,100,30.29,10.0,Calm,Calm,-,N/A,,Clear,0,2012-10-07 10:15:00
5:35 AM,33.8,34.0,100,30.29,10.0,Calm,Calm,-,N/A,,Clear,0,2012-10-07 10:35:00
5:55 AM,33.8,34.0,100,30.30,10.0,Calm,Calm,-,N/A,,Clear,0,2012-10-07 10:55:00
6:15 AM,32.5,-9999,N/A,30.30,10.0,Calm,Calm,-,N/A,,Clear,0,2012-10-07 11:15:00
6:55 AM,31.3,-9999,N/A,30.30,10.0,Calm,Calm,-,N/A,,Clear,0,2012-10-07 11:55:00
7:15 AM,31.6,-9999,N/A,30.30,10.0,Calm,Calm,-,N/A,,Clear,0,2012-10-07 12:15:00
7:35 AM,31.6,-9999,N/A,30.31,10.0,Calm,Calm,-,N/A,,Clear,0,2012-10-07 12:35:00
7:55 AM,31.6,-9999,N/A,30.31,10.0,Calm,Calm,-,N/A,,Clear,0,2012-10-07 12:55:00
8:15 AM,33.1,-9999,N/A,30.31,10.0,NNW,3.5,-,N/A,,Clear,340,2012-10-07 13:15:00
8:55 AM,38.1,35.8,91,30.31,10.0,Calm,Calm,-,N/A,,Clear,0,2012-10-07 13:55:00
9:15 AM,40.1,33.8,78,30.31,10.0,Calm,Calm,-,N/A,,Clear,0,2012-10-07 14:15:00
9:35 AM,42.3,32.4,68,30.31,10.0,NNE,3.5,-,N/A,,Clear,30,2012-10-07 14:35:00
9:55 AM,44.4,31.5,60,30.31,10.0,ENE,4.6,-,N/A,,Clear,60,2012-10-07 14:55:00
10:15 AM,46.2,30.9,55,30.31,10.0,NE,3.5,-,N/A,,Clear,50,2012-10-07 15:15:00
10:35 AM,48.4,30.0,49,30.32,10.0,North,5.8,-,N/A,,Clear,10,2012-10-07 15:35:00
10:55 AM,49.1,30.2,48,30.33,10.0,NNE,3.5,-,N/A,,Clear,30,2012-10-07 15:55:00
11:15 AM,49.1,29.8,47,30.33,10.0,NNE,3.5,-,N/A,,Clear,20,2012-10-07 16:15:00
11:35 AM,49.1,29.3,46,30.32,10.0,NW,4.6,-,N/A,,Clear,320,2012-10-07 16:35:00
12:15 PM,49.3,28.4,45,30.30,10.0,NNW,6.9,-,N/A,,Clear,340,2012-10-07 17:15:00
12:35 PM,49.8,28.6,44,30.29,10.0,NE,5.8,-,N/A,,Clear,50,2012-10-07 17:35:00
12:55 PM,51.1,29.7,44,30.29,10.0,North,6.9,-,N/A,,Clear,10,2012-10-07 17:55:00
1:15 PM,51.3,29.7,44,30.28,10.0,Calm,Calm,-,N/A,,Clear,0,2012-10-07 18:15:00
1:35 PM,51.4,28.6,41,30.27,10.0,Calm,Calm,-,N/A,,Clear,0,2012-10-07 18:35:00
1:55 PM,52.5,28.9,40,30.26,10.0,North,3.5,-,N/A,,Clear,360,2012-10-07 18:55:00
2:15 PM,52.7,29.1,40,30.25,10.0,NW,6.9,-,N/A,,Clear,320,2012-10-07 19:15:00
2:35 PM,53.6,28.8,39,30.23,10.0,Calm,Calm,-,N/A,,Clear,0,2012-10-07 19:35:00
2:55 PM,54.0,28.9,38,-9999,10.0,Calm,Calm,-,N/A,,Clear,0,2012-10-07 19:55:00
3:15 PM,54.0,28.6,38,30.22,10.0,North,3.5,-,N/A,,Clear,10,2012-10-07 20:15:00
3:35 PM,54.0,28.2,37,30.21,10.0,Calm,Calm,-,N/A,,Clear,0,2012-10-07 20:35:00
3:55 PM,54.0,28.2,37,30.21,10.0,NW,3.5,-,N/A,,Clear,310,2012-10-07 20:55:00
4:15 PM,54.0,27.7,36,30.20,10.0,Calm,Calm,-,N/A,,Clear,0,2012-10-07 21:15:00
4:35 PM,54.0,27.5,36,30.19,10.0,West,3.5,-,N/A,,Clear,270,2012-10-07 21:35:00
4:55 PM,54.0,27.1,36,30.19,10.0,ESE,3.5,-,N/A,,Clear,120,2012-10-07 21:55:00
5:15 PM,54.0,27.1,36,30.19,10.0,Calm,Calm,-,N/A,,Clear,0,2012-10-07 22:15:00
5:35 PM,54.0,27.3,36,30.18,10.0,SW,4.6,-,N/A,,Clear,230,2012-10-07 22:35:00
5:55 PM,54.0,28.0,37,30.18,10.0,SW,3.5,-,N/A,,Clear,230,2012-10-07 22:55:00
6:15 PM,54.0,29.8,40,30.18,10.0,Calm,Calm,-,N/A,,Clear,0,2012-10-07 23:15:00
6:35 PM,52.0,30.0,43,30.18,10.0,Calm,Calm,-,N/A,,Clear,0,2012-10-07 23:35:00
6:55 PM,49.8,28.9,45,30.18,10.0,Calm,Calm,-,N/A,,Clear,0,2012-10-07 23:55:00
7:15 PM,46.4,32.4,58,30.19,10.0,Calm,Calm,-,N/A,,Clear,0,2012-10-08 00:15:00
7:35 PM,43.3,32.2,65,30.19,10.0,SSW,4.6,-,N/A,,Clear,200,2012-10-08 00:35:00
7:55 PM,40.8,32.0,71,30.19,10.0,SSW,3.5,-,N/A,,Clear,210,2012-10-08 00:55:00
8:15 PM,41.2,31.8,69,30.19,10.0,SSW,3.5,-,N/A,,Clear,200,2012-10-08 01:15:00
8:35 PM,39.6,32.2,75,30.20,10.0,Calm,Calm,-,N/A,,Clear,0,2012-10-08 01:35:00
8:55 PM,38.8,32.9,79,30.20,10.0,Calm,Calm,-,N/A,,Clear,0,2012-10-08 01:55:00
9:15 PM,38.8,33.8,82,30.20,10.0,Calm,Calm,-,N/A,,Clear,0,2012-10-08 02:15:00
9:35 PM,38.8,34.3,84,30.21,10.0,Calm,Calm,-,N/A,,Clear,0,2012-10-08 02:35:00
9:55 PM,38.8,33.6,82,30.21,10.0,SSW,3.5,-,N/A,,Clear,200,2012-10-08 02:55:00
10:15 PM,37.0,32.4,83,30.21,10.0,SW,3.5,-,N/A,,Clear,230,2012-10-08 03:15:00
10:35 PM,36.7,32.9,86,30.21,10.0,Calm,Calm,-,N/A,,Clear,0,2012-10-08 03:35:00
10:55 PM,37.2,31.6,80,30.20,10.0,SW,4.6,-,N/A,,Clear,230,2012-10-08 03:55:00
11:15 PM,38.1,31.8,78,30.20,10.0,Calm,Calm,-,N/A,,Clear,0,2012-10-08 04:15:00
11:35 PM,36.9,32.4,84,30.20,10.0,WSW,5.8,-,N/A,,Clear,240,2012-10-08 04:35:00
11:55 PM,37.2,30.9,78,30.20,10.0,SW,4.6,-,N/A,,Clear,230,2012-10-08 04:55:00